Regional Weather Roundup
Issued by NWS

Home | Current Version | Previous Version | Graphics & Text | Print | Product List | Glossary On
Versions: 1 2 3 4 5 6 7 8 9 10 11 12 13 14 15 16 17 18 19 20 21 22 23 24 25 26 27 28 29 30 31 32 33 34 35 36 37 38 39 40 41 42 43 44 45 46 47 48 49 50
000
ASUS45 KABQ 190910
RWRNM
NEW MEXICO REGIONAL WEATHER ROUNDUP
NATIONAL WEATHER SERVICE ALBUQUERQUE NM
200 AM MST FRI JAN 19 2018

NOTE: "FAIR" MEANS FEW OR NO CLOUDS BELOW 12,000 FEET AGL WITH NO
       SIGNIFICANT WEATHER OR OBSTRUCTIONS TO VISION.

      THIS PRODUCT IS RELEASED AS TWO VERSIONS.  ONE VERSION NEAR
      THE TOP OF THE HOUR CONTAINING PRELIMINARY DATA FROM ALBUQUERQUE
      AND OTHER STATIONS.  A FINAL VERSION WITH ADDITIONAL DATA IS
      ISSUED ABOUT 10 MINUTES AFTER THE HOUR.

NMZ501-503-504-510>518-191000-
NORTHWEST PLATEAU/NORTHCENTRAL MOUNTAINS

CITY           SKY/WX    TMP DP  RH WIND       PRES   REMARKS
FARMINGTON     FAIR      24  15  68 E7        30.16F WCI  16
LOS ALAMOS     FAIR      33  11  40 NE5       30.16F WCI  28
SANTA FE       FAIR      25  11  55 N9        30.13F WCI  15
TAOS           FAIR      15   2  56 N9        30.20F WCI   3
ANGEL FIRE     FAIR       6   0  78 CALM      30.19F

$$
NMZ402-403-502-505>509-191000-
WESTCENTRAL MOUNTAINS/SOUTHWEST MOUNTAINS

CITY           SKY/WX    TMP DP  RH WIND       PRES   REMARKS
GALLUP         FAIR      16  10  77 NE5       30.19F WCI   9
GRANTS         FAIR      18   7  62 NW7       30.22S WCI   8
SILVER CITY    FAIR      24  11  56 N9        30.17S WCI  15

$$
NMZ407-409-411-412-191000-
SOUTHERN DESERTS

CITY           SKY/WX    TMP DP  RH WIND       PRES   REMARKS
DEMING         FAIR      20   4  50 CALM      30.17F
LAS CRUCES     FAIR      31  11  43 CALM      30.18F
HOLLOMAN AFB   FAIR      22   4  45 CALM      30.20S
ALAMOGORDO     FAIR      27   5  39 NW5       30.18S WCI  21
T OR C         FAIR      32   7  35 W8        30.16F WCI  25

$$
NMZ519>523-191000-
CENTRAL VALLEYS/CENTRAL HIGHLANDS

CITY           SKY/WX    TMP DP  RH WIND       PRES   REMARKS
ALBUQUERQUE    MOCLDY    36  11  35 SE3       30.16F
MORIARTY ARPT  FAIR      16   4  59 NE3       30.14F
CLINES CORNERS FAIR      29  13  51 NW18      30.12F WCI  16
BELEN          FAIR      24   8  50 NW7       30.16F WCI  15
SOCORRO        FAIR      25   5  42 CALM      30.16F

$$
NMZ524>526-539-540-191000-
SOUTHCENTRAL MOUNTAINS

CITY           SKY/WX    TMP DP  RH WIND       PRES   REMARKS
RUIDOSO        FAIR      37   3  23 W5        30.15  WCI  34

$$
NMZ527>531-191000-
NORTHEAST HIGHLANDS/NORTHEAST PLAINS

CITY           SKY/WX    TMP DP  RH WIND       PRES   REMARKS
LAS VEGAS      FAIR      35   4  27 NW6       30.05F WCI  30
RATON          FAIR      22   7  52 CALM      30.01F
CLAYTON        FAIR      39   6  25 W10       29.94F WCI  32

$$
NMZ532>537-191000-
EASTCENTRAL PLAINS

CITY           SKY/WX    TMP DP  RH WIND       PRES   REMARKS
TUCUMCARI      FAIR      31  13  47 W13       29.98R WCI  21
CANNON AFB     FAIR      32  13  46 W13       30.04F WCI  22
CLOVIS AIRPORT FAIR      33  13  43 W15       30.03F WCI  23

$$
NMZ028-029-538-191000-
SOUTHEAST PLAINS

CITY           SKY/WX    TMP DP  RH WIND       PRES   REMARKS
ROSWELL        FAIR      21   6  52 CALM      30.07F
ARTESIA        FAIR      27  10  50 S8        30.09F WCI  18
CARLSBAD       FAIR      20  10  65 CALM      30.08F
HOBBS          FAIR      25  14  63 W6        30.09F WCI  18


$$




USA.gov is the U.S. government's official web portal to all federal, state and local government web resources and services.